Wind_Speed
18 17 16 15 15 14 14 14 15 14 13 13 14 13 13 12 12 12 12 12 12 12 12 12 13 13 13 13 13 13 14 13 13 13 15 15 14 14 13 14 15 15 16
18 17 16 15 15 15 15 14 14 14 13 13 13 12 12 12 12 12 12 13 13 13 13 12 13 13 13 13 13 13 13 13 14 14 15 15 14 14 15 15 16 17 17
18 18 16 15 15 15 14 14 14 14 14 14 14 12 12 12 12 12 13 12 12 13 13 13 13 12 12 13 13 13 13 14 14 14 15 15 15 16 16 17 17 18 19
18 16 16 16 15 15 14 13 13 14 13 13 13 12 12 11 11 12 12 12 11 12 12 12 12 11 12 13 14 14 14 14 14 14 15 15 15 16 16 17 18 19 20
17 16 15 15 15 14 13 12 12 13 12 12 11 11 11 11 11 11 12 11 11 11 11 11 12 12 12 13 14 14 14 14 15 15 16 16 15 16 16 16 17 18 19
16 15 14 14 14 13 13 12 11 11 10 10 10 11 11 11 11 12 11 11 11 11 11 11 11 12 13 13 13 14 14 15 16 16 16 16 16 17 17 17 17 17 17
15 13 12 13 14 14 13 12 12 11 10 9 10 11 12 12 12 11 11 10 10 11 11 11 11 11 12 12 13 13 15 15 16 16 16 17 17 17 17 18 17 17 17
14 14 13 13 13 13 13 13 12 11 11 11 11 12 12 11 11 11 10 10 11 11 11 11 10 11 11 12 12 13 14 16 16 17 17 17 18 17 18 18 18 17 17
15 14 13 13 13 14 13 13 11 10 11 11 11 11 12 11 11 11 11 10 10 10 10 10 10 11 11 12 13 14 15 15 16 17 17 18 18 18 18 18 18 17 17
15 14 14 13 14 14 13 12 11 11 12 12 11 12 12 12 12 11 11 11 10 10 11 11 11 11 11 12 13 14 15 15 15 16 17 16 16 16 16 16 16 15 15
15 15 14 14 14 14 13 13 12 12 12 12 12 13 13 13 13 13 12 11 10 10 11 11 12 12 13 14 13 14 14 15 16 17 16 16 16 16 16 16 16 17 17
16 16 15 14 15 14 13 13 13 13 13 12 13 13 14 15 14 13 13 12 12 11 11 11 11 12 13 14 14 14 14 14 15 16 16 16 16 16 17 16 16 16 17
16 16 14 14 15 14 13 13 13 13 13 14 14 15 15 15 15 14 14 13 13 12 12 12 13 13 14 14 14 14 14 15 15 15 16 15 16 16 16 16 16 16 17
18 17 16 15 14 14 14 14 15 14 14 14 14 15 15 15 15 14 14 14 14 14 14 14 14 15 15 15 15 15 15 15 15 15 15 16 16 16 16 16 17 18 18
18 17 16 16 15 15 14 14 15 15 15 15 15 14 14 14 15 15 15 16 15 15 15 15 16 16 16 16 16 16 15 15 16 16 16 16 16 16 16 16 17 18 18
18 18 17 17 17 17 15 15 16 17 16 16 15 15 15 15 15 15 16 16 16 16 16 16 16 17 17 17 17 17 16 17 17 18 17 17 17 17 16 17 17 18 18
19 19 19 19 18 18 17 16 17 17 17 16 16 16 16 16 16 16 16 17 17 18 18 18 17 18 18 18 18 18 19 19 19 19 19 19 18 17 17 18 18 19 19
19 19 19 19 19 17 17 18 18 18 18 18 18 17 17 17 17 17 18 18 18 18 19 19 19 19 19 19 20 20 21 21 21 21 20 20 20 20 20 20 20 20 20
20 20 20 21 20 19 18 18 18 18 18 18 18 18 17 17 17 17 17 17 18 18 18 19 19 19 20 20 21 22 23 23 23 23 22 22 22 22 22 22 22 22 22
20 20 20 20 20 20 19 18 19 18 18 18 18 18 18 18 18 18 18 18 18 18 19 19 19 20 20 20 21 21 22 23 22 22 23 22 23 23 23 23 22 22 23
19 19 19 19 19 19 19 18 19 19 18 18 18 19 18 19 19 19 19 19 19 19 19 19 20 20 20 20 21 21 22 22 22 23 23 23 23 23 23 23 23 23 23
21 20 20 20 19 19 19 19 19 19 19 19 19 19 20 20 19 19 19 19 19 20 20 20 20 21 21 21 22 21 22 22 23 23 23 23 23 23 23 23 23 23 23
23 22 21 21 21 21 20 20 20 20 20 20 20 20 20 20 20 20 20 20 20 20 21 21 21 22 22 23 23 23 22 22 22 21 21 22 23 23 24 24 24 24 24
24 23 23 22 22 21 21 21 21 21 21 21 21 21 20 20 20 20 20 21 21 21 21 21 21 21 22 23 23 23 23 22 22 22 22 23 23 24 24 24 24 24 24
25 24 23 23 22 22 22 22 21 21 21 21 21 21 21 21 22 21 22 22 22 22 22 22 22 22 23 23 23 23 23 22 22 22 22 22 23 23 24 24 24 25 25
24 23 23 22 22 22 22 22 22 21 21 22 22 22 22 22 22 22 22 22 22 23 24 24 24 24 23 23 23 23 23 23 23 23 23 23 23 23 23 24 24 25 25
Wind_Direction
280 282 282 284 285 285 286 286 289 291 291 289 287 284 282 279 277 275 274 275 274 272 270 272 272 272 273 269 266 264 264 261 263 266 266 266 266 265 265 271 271 268 267
274 276 281 282 285 282 284 286 287 287 287 288 286 282 280 279 277 277 276 278 277 273 270 275 274 273 273 271 272 271 266 265 268 268 269 268 267 266 268 269 269 269 268
273 278 280 284 284 285 289 290 286 286 284 285 283 282 281 280 279 279 280 280 279 279 275 277 277 275 276 272 271 273 267 266 267 269 270 271 269 272 272 272 271 272 271
270 273 279 283 283 284 285 286 288 290 286 284 283 282 283 282 282 284 285 283 281 282 278 276 275 274 277 277 274 273 269 269 269 268 271 274 273 274 275 274 274 274 272
272 276 279 279 281 284 288 290 287 292 288 281 279 282 284 284 286 286 285 282 280 280 280 280 276 274 277 279 278 276 272 271 271 272 273 273 274 276 278 276 277 277 273
276 280 279 279 281 284 290 292 289 291 295 285 280 281 284 284 286 288 286 286 282 279 283 285 281 278 277 279 278 277 275 274 275 275 275 274 273 275 277 277 278 280 276
273 274 275 277 277 279 285 289 286 284 290 293 286 284 284 284 287 288 289 289 287 286 286 288 287 284 282 281 280 279 275 274 275 274 276 276 272 275 276 277 278 280 278
271 273 275 278 275 276 279 283 285 281 284 290 294 286 288 288 288 289 289 288 287 288 290 290 291 290 289 288 286 281 278 276 275 276 276 275 274 275 276 276 277 278 277
272 272 276 280 278 277 276 282 283 282 286 287 290 292 292 293 292 291 290 291 293 292 289 290 288 293 295 292 289 285 284 281 278 277 275 275 276 278 280 277 277 278 278
272 270 275 276 276 277 278 282 279 283 290 292 290 290 291 294 296 294 294 293 292 292 292 290 286 292 297 296 290 285 284 283 284 282 280 281 282 284 285 284 282 281 280
272 269 274 274 273 274 276 279 280 282 286 289 291 290 289 292 296 294 295 292 293 295 294 293 291 294 295 295 295 290 287 286 285 284 281 284 288 290 290 287 283 283 283
270 269 271 271 271 271 275 278 276 277 280 284 287 290 290 290 292 291 290 288 287 289 294 297 296 297 296 296 298 297 294 293 293 291 287 286 287 289 288 285 284 285 286
271 275 270 271 269 268 268 271 272 275 279 283 284 287 287 285 285 286 287 286 286 287 290 293 295 295 295 294 297 295 294 296 297 298 294 290 288 288 287 287 288 288 288
272 275 274 273 273 269 265 268 271 273 276 280 283 283 282 281 281 282 284 284 283 285 288 289 291 292 294 295 294 294 294 296 296 295 295 294 291 289 287 288 289 288 287
272 271 271 272 273 270 266 268 269 272 275 278 279 282 282 282 281 282 283 283 284 285 286 287 288 290 292 293 293 292 293 294 295 295 295 293 293 291 289 288 289 289 289
272 270 269 272 275 273 271 273 272 274 277 281 279 279 280 280 279 281 282 283 282 283 285 285 287 289 291 293 293 292 293 293 294 295 295 294 292 292 291 292 291 292 291
272 271 270 273 274 273 274 272 271 272 274 275 277 278 282 283 283 282 283 284 283 283 284 284 286 287 289 290 291 291 293 293 293 293 292 291 291 290 291 294 295 293 292
272 273 274 274 273 275 275 271 272 274 275 275 279 278 282 285 284 283 284 285 284 284 284 284 286 288 288 289 289 290 291 292 291 291 291 290 288 289 291 294 295 294 293
272 273 274 274 275 275 276 274 275 277 277 279 280 279 280 283 284 283 284 284 284 284 284 283 284 285 286 287 287 287 288 288 289 289 289 288 288 288 290 292 293 293 293
269 272 274 272 271 274 278 276 276 278 278 279 281 280 282 282 282 282 281 283 285 285 284 284 285 286 285 286 286 286 286 286 286 286 287 289 289 289 289 290 291 290 290
266 269 271 271 272 276 277 278 279 278 278 279 279 280 280 282 283 282 283 282 283 285 284 284 285 285 285 287 288 289 288 288 287 286 286 287 287 287 287 288 289 289 290
265 266 268 270 271 273 274 276 277 277 278 279 279 279 279 281 283 283 285 284 285 285 285 284 285 286 286 288 289 291 292 292 290 289 288 287 286 287 287 287 289 289 290
265 266 268 269 270 270 271 272 273 275 277 278 278 277 277 277 279 281 282 283 285 286 286 286 287 287 287 289 291 293 293 293 292 292 291 289 288 287 287 287 288 289 289
264 265 265 267 268 270 269 269 271 273 275 277 277 277 275 274 277 281 281 282 283 285 286 287 288 289 290 291 291 292 292 292 293 292 291 290 289 287 287 287 288 289 290
263 263 263 265 267 268 270 271 274 274 274 274 274 275 275 274 276 278 279 281 282 285 286 286 287 289 291 291 290 290 290 291 291 291 291 290 290 290 288 287 288 288 289
261 262 262 264 266 268 269 272 274 274 273 273 273 274 276 277 275 275 277 281 282 284 286 287 287 288 289 289 289 289 289 291 290 291 291 291 291 291 292 291 290 290 291
Height
5837 5835 5835 5834 5834 5834 5834 5834 5833 5833 5832 5831 5831 5831 5830 5830 5830 5830 5830 5831 5831 5831 5831 5832 5832 5832 5832 5832 5832 5833 5834 5834 5835 5835 5836 5836 5837 5837 5837 5837 5838 5838 5838
5834 5833 5832 5831 5832 5832 5831 5831 5831 5831 5830 5829 5829 5829 5828 5828 5828 5828 5828 5828 5828 5828 5828 5828 5829 5829 5829 5829 5829 5830 5830 5831 5831 5832 5832 5832 5833 5833 5833 5833 5833 5834 5834
5829 5830 5829 5829 5829 5829 5829 5828 5828 5827 5827 5827 5826 5826 5826 5826 5825 5825 5825 5825 5825 5825 5825 5825 5826 5826 5826 5826 5827 5827 5827 5827 5828 5828 5828 5828 5829 5829 5829 5829 5829 5829 5829
5827 5827 5827 5827 5827 5827 5827 5826 5825 5824 5824 5824 5824 5824 5824 5823 5823 5823 5823 5823 5823 5822 5822 5822 5823 5823 5823 5823 5823 5824 5824 5824 5824 5824 5824 5824 5824 5825 5825 5824 5824 5824 5824
5823 5823 5823 5824 5824 5824 5824 5823 5822 5822 5821 5821 5822 5822 5821 5821 5821 5821 5821 5820 5820 5820 5820 5819 5819 5820 5820 5820 5820 5820 5820 5821 5821 5821 5820 5820 5820 5820 5820 5820 5819 5819 5819
5820 5820 5821 5821 5821 5821 5821 5821 5820 5819 5819 5819 5819 5819 5819 5819 5819 5819 5818 5818 5818 5817 5817 5817 5817 5817 5817 5816 5817 5817 5817 5817 5817 5817 5816 5816 5816 5816 5815 5815 5815 5814 5814
5818 5818 5818 5819 5819 5819 5819 5819 5818 5818 5818 5817 5817 5817 5817 5817 5817 5816 5816 5816 5815 5815 5814 5814 5814 5814 5813 5813 5813 5813 5813 5813 5813 5813 5812 5812 5811 5811 5811 5810 5810 5810 5810
5814 5814 5815 5816 5816 5816 5817 5816 5816 5816 5816 5816 5816 5815 5815 5815 5814 5814 5814 5813 5813 5812 5812 5811 5811 5811 5811 5810 5810 5810 5810 5809 5809 5809 5808 5808 5807 5807 5806 5806 5806 5806 5806
5811 5811 5812 5813 5814 5814 5814 5814 5813 5814 5814 5814 5814 5814 5813 5813 5812 5812 5811 5811 5810 5810 5810 5809 5809 5808 5808 5808 5807 5807 5806 5806 5805 5805 5804 5804 5804 5803 5802 5802 5802 5802 5801
5808 5808 5810 5810 5811 5811 5811 5811 5811 5812 5812 5812 5812 5811 5811 5811 5810 5810 5809 5809 5808 5808 5807 5807 5806 5806 5805 5805 5804 5803 5803 5802 5802 5801 5801 5800 5800 5799 5798 5798 5797 5797 5797
5806 5806 5806 5807 5808 5808 5808 5808 5808 5809 5809 5809 5809 5809 5809 5808 5808 5807 5807 5807 5806 5806 5805 5804 5804 5803 5803 5802 5801 5800 5799 5799 5798 5797 5797 5796 5796 5795 5795 5794 5793 5793 5793
5803 5803 5803 5804 5804 5805 5805 5805 5806 5806 5806 5806 5806 5806 5806 5805 5805 5805 5804 5804 5804 5803 5803 5802 5802 5801 5800 5799 5798 5797 5796 5796 5795 5794 5793 5793 5792 5791 5791 5790 5789 5789 5789
5799 5799 5799 5800 5801 5802 5802 5802 5802 5803 5803 5803 5803 5803 5803 5802 5802 5802 5801 5801 5801 5801 5800 5800 5799 5799 5798 5797 5795 5794 5793 5793 5792 5791 5790 5789 5788 5788 5787 5786 5785 5785 5784
5796 5797 5797 5797 5797 5798 5799 5799 5799 5800 5800 5799 5799 5799 5799 5799 5798 5798 5798 5798 5798 5798 5797 5797 5796 5795 5795 5794 5792 5791 5790 5789 5788 5788 5787 5786 5785 5784 5783 5782 5781 5781 5780
5793 5794 5794 5795 5794 5794 5794 5795 5796 5796 5796 5796 5795 5795 5795 5795 5795 5795 5795 5795 5794 5794 5794 5793 5793 5792 5791 5790 5789 5788 5787 5786 5785 5784 5783 5782 5781 5780 5779 5778 5777 5776 5775
5789 5790 5791 5791 5791 5790 5791 5792 5792 5792 5792 5792 5792 5792 5792 5791 5791 5791 5791 5791 5791 5790 5790 5789 5789 5788 5787 5786 5785 5784 5783 5782 5781 5780 5779 5778 5776 5776 5774 5773 5773 5772 5770
5785 5786 5787 5787 5787 5787 5786 5788 5788 5788 5788 5788 5787 5788 5787 5787 5787 5787 5787 5787 5786 5786 5785 5785 5784 5783 5783 5782 5780 5780 5779 5778 5777 5776 5774 5773 5772 5771 5770 5768 5767 5766 5765
5781 5782 5782 5782 5783 5783 5783 5784 5784 5784 5784 5783 5783 5783 5783 5783 5782 5782 5782 5782 5781 5781 5781 5780 5780 5779 5778 5777 5776 5775 5774 5773 5771 5770 5769 5768 5767 5766 5764 5763 5762 5761 5759
5777 5778 5778 5778 5778 5778 5779 5779 5779 5780 5779 5779 5779 5779 5779 5778 5778 5778 5777 5777 5776 5776 5776 5775 5774 5774 5773 5771 5770 5769 5768 5767 5766 5764 5763 5762 5761 5760 5758 5757 5756 5755 5753
5772 5773 5773 5773 5773 5774 5774 5774 5775 5775 5775 5774 5774 5774 5774 5774 5773 5773 5772 5772 5771 5771 5770 5769 5769 5768 5767 5766 5764 5763 5762 5761 5759 5758 5757 5756 5754 5753 5752 5751 5750 5749 5747
5768 5768 5768 5768 5769 5769 5770 5770 5770 5770 5770 5770 5770 5769 5769 5768 5768 5768 5767 5767 5766 5766 5765 5764 5763 5762 5761 5760 5759 5757 5756 5754 5753 5751 5750 5749 5748 5747 5746 5745 5743 5742 5741
5762 5763 5763 5764 5764 5764 5765 5765 5765 5765 5765 5765 5764 5764 5763 5763 5763 5762 5762 5761 5760 5760 5759 5758 5757 5757 5756 5755 5753 5751 5750 5748 5746 5745 5743 5742 5741 5740 5739 5738 5737 5735 5734
5756 5757 5758 5758 5759 5759 5759 5759 5760 5759 5759 5759 5759 5758 5758 5758 5757 5757 5756 5755 5755 5754 5753 5752 5751 5751 5750 5748 5747 5745 5743 5742 5740 5738 5737 5735 5734 5733 5732 5731 5730 5728 5727
5750 5750 5751 5752 5752 5753 5753 5754 5753 5754 5754 5753 5753 5753 5752 5752 5751 5751 5750 5750 5749 5748 5747 5747 5746 5744 5743 5742 5740 5739 5737 5735 5734 5732 5731 5729 5728 5727 5726 5724 5723 5721 5720
5743 5744 5745 5745 5746 5747 5747 5747 5747 5747 5747 5747 5747 5747 5747 5746 5745 5745 5744 5744 5743 5742 5741 5740 5739 5738 5737 5735 5734 5732 5731 5729 5728 5726 5725 5723 5722 5720 5719 5718 5716 5715 5713
5735 5737 5738 5739 5740 5740 5741 5741 5741 5741 5741 5741 5741 5741 5740 5740 5739 5739 5738 5737 5736 5735 5734 5733 5732 5731 5730 5728 5727 5726 5724 5723 5721 5719 5718 5717 5715 5714 5712 5710 5709 5707 5705